QPF
0.00 0.00 0.00 0.01 0.00 0.00 0.00 0.01 0.01 0.00 0.00 0.00 0.00 0.00 0.00 0.00 0.00 0.00 0.00 0.00 0.00 0.00 0.00 0.00 0.00 0.00 0.00 0.00 0.00 0.00 0.00 0.00 0.00 0.00 0.00 0.00 0.00 0.00 0.00 0.00 0.00 0.00
0.00 0.00 0.00 0.00 0.01 0.01 0.00 0.00 0.01 0.00 0.00 0.00 0.00 0.00 0.00 0.00 0.00 0.00 0.00 0.00 0.00 0.00 0.00 0.00 0.00 0.00 0.00 0.00 0.00 0.00 0.00 0.00 0.00 0.00 0.00 0.00 0.00 0.00 0.00 0.00 0.00 0.00
0.00 0.00 0.00 0.00 0.00 0.00 0.00 0.00 0.00 0.00 0.00 0.00 0.00 0.00 0.00 0.00 0.00 0.00 0.00 0.00 0.00 0.00 0.00 0.00 0.00 0.00 0.00 0.00 0.00 0.00 0.00 0.00 0.00 0.00 0.00 0.00 0.00 0.00 0.00 0.00 0.00 0.00
0.00 0.00 0.00 0.00 0.00 0.00 0.00 0.00 0.00 0.00 0.00 0.00 0.00 0.00 0.00 0.00 0.00 0.00 0.00 0.00 0.00 0.00 0.00 0.00 0.00 0.00 0.00 0.00 0.00 0.00 0.00 0.00 0.00 0.00 0.00 0.00 0.00 0.00 0.00 0.00 0.00 0.00
0.00 0.00 0.00 0.00 0.00 0.00 0.00 0.00 0.00 0.00 0.00 0.00 0.00 0.00 0.00 0.00 0.00 0.00 0.00 0.00 0.00 0.00 0.00 0.00 0.00 0.00 0.00 0.00 0.00 0.00 0.00 0.00 0.00 0.00 0.00 0.00 0.00 0.00 0.00 0.00 0.00 0.00
0.00 0.00 0.00 0.00 0.00 0.00 0.00 0.00 0.00 0.00 0.00 0.00 0.00 0.00 0.00 0.00 0.00 0.00 0.00 0.00 0.00 0.00 0.00 0.00 0.00 0.00 0.00 0.00 0.00 0.00 0.00 0.00 0.00 0.00 0.00 0.00 0.00 0.00 0.00 0.00 0.00 0.00
0.00 0.00 0.00 0.00 0.00 0.00 0.00 0.00 0.00 0.00 0.01 0.00 0.00 0.00 0.00 0.00 0.00 0.00 0.00 0.00 0.00 0.00 0.00 0.00 0.00 0.00 0.00 0.00 0.00 0.00 0.00 0.00 0.00 0.00 0.00 0.00 0.00 0.00 0.00 0.00 0.00 0.00
0.00 0.00 0.00 0.00 0.00 0.00 0.00 0.00 0.00 0.00 0.00 0.00 0.00 0.00 0.00 0.00 0.00 0.00 0.00 0.00 0.00 0.00 0.00 0.00 0.00 0.00 0.00 0.00 0.00 0.00 0.00 0.00 0.00 0.00 0.00 0.00 0.00 0.00 0.00 0.00 0.00 0.00
0.00 0.00 0.00 0.00 0.00 0.00 0.00 0.00 0.00 0.00 0.00 0.00 0.00 0.00 0.00 0.00 0.00 0.00 0.00 0.00 0.00 0.00 0.00 0.00 0.00 0.00 0.00 0.00 0.00 0.00 0.00 0.00 0.00 0.00 0.00 0.00 0.00 0.00 0.00 0.00 0.00 0.00
0.00 0.00 0.00 0.00 0.00 0.00 0.00 0.00 0.00 0.00 0.00 0.00 0.00 0.00 0.00 0.00 0.00 0.00 0.00 0.00 0.00 0.00 0.00 0.00 0.00 0.00 0.00 0.00 0.00 0.00 0.00 0.00 0.00 0.00 0.00 0.00 0.00 0.00 0.00 0.00 0.00 0.00
0.00 0.00 0.00 0.00 0.00 0.00 0.00 0.00 0.00 0.00 0.00 0.00 0.00 0.00 0.00 0.00 0.00 0.00 0.00 0.00 0.00 0.00 0.00 0.00 0.00 0.00 0.00 0.00 0.00 0.00 0.00 0.00 0.00 0.00 0.00 0.00 0.00 0.00 0.00 0.00 0.00 0.00
0.00 0.00 0.00 0.00 0.00 0.00 0.00 0.00 0.00 0.00 0.00 0.00 0.00 0.00 0.00 0.00 0.00 0.00 0.00 0.00 0.00 0.00 0.00 0.00 0.00 0.00 0.00 0.00 0.00 0.00 0.00 0.00 0.00 0.00 0.00 0.00 0.00 0.00 0.00 0.00 0.00 0.00
0.00 0.00 0.00 0.00 0.00 0.00 0.00 0.00 0.00 0.00 0.00 0.00 0.00 0.00 0.00 0.00 0.00 0.00 0.00 0.00 0.00 0.00 0.00 0.00 0.00 0.00 0.00 0.00 0.00 0.00 0.00 0.00 0.00 0.00 0.00 0.00 0.00 0.00 0.00 0.00 0.00 -0.00
0.00 0.00 0.00 0.00 0.00 0.00 0.00 0.00 0.00 0.00 0.00 0.00 -0.00 0.00 -0.00 0.00 -0.00 0.00 0.00 0.00 0.00 0.00 0.00 0.00 0.00 0.00 0.00 0.00 0.00 0.00 0.00 0.00 0.00 0.00 0.00 0.00 0.00 0.00 0.00 -0.00 0.00 0.00
0.00 0.00 0.00 0.00 0.00 0.00 0.00 0.00 0.00 0.00 0.00 0.00 0.00 0.00 0.00 0.00 0.00 0.00 0.00 0.00 0.00 0.00 0.00 0.00 0.00 0.00 0.00 0.00 0.00 0.00 -0.00 0.00 0.00 0.00 0.00 0.00 0.00 0.00 0.00 0.00 0.00 -0.00
0.00 0.00 0.00 0.00 0.00 0.00 0.00 0.00 0.00 0.00 0.00 0.00 -0.00 0.00 0.00 0.00 0.00 0.00 0.00 0.00 0.00 0.00 0.00 0.00 0.00 0.00 0.00 -0.00 0.00 0.00 0.00 0.00 0.00 0.00 0.00 0.00 0.00 0.00 0.00 0.00 0.00 0.00
0.00 0.00 0.00 0.00 0.00 0.00 0.00 0.00 0.00 0.00 0.00 0.00 0.00 0.00 0.00 0.00 0.00 0.00 0.00 -0.00 -0.00 -0.00 -0.00 -0.00 -0.00 -0.00 -0.00 0.00 0.00 0.00 0.00 0.00 0.00 0.00 0.00 0.00 0.00 0.00 0.00 0.00 0.00 0.00
0.00 0.00 0.00 0.00 0.00 0.00 0.00 0.00 0.00 0.00 0.00 0.00 0.00 0.00 0.00 0.00 0.00 0.00 0.00 0.00 -0.00 0.00 0.00 0.00 0.00 -0.00 -0.00 0.00 0.00 0.00 0.00 0.00 0.00 0.00 0.00 0.00 0.00 0.00 0.00 0.01 0.01 0.01
0.00 0.00 0.00 0.00 0.00 0.00 0.00 0.00 0.00 0.00 0.00 0.00 0.00 0.00 0.00 0.00 0.00 0.00 0.00 0.00 0.00 0.00 0.00 0.00 0.00 -0.00 -0.00 0.00 0.00 0.00 0.00 0.00 0.00 0.00 0.00 0.00 0.00 0.00 0.01 0.01 0.01 0.01
0.00 0.00 0.00 0.00 0.00 0.00 0.00 0.00 0.00 0.00 0.00 0.00 0.00 0.00 0.00 0.00 0.00 0.00 0.00 0.00 0.00 -0.00 0.00 0.00 0.00 0.00 0.00 0.00 0.00 0.00 0.00 0.00 0.00 0.00 0.00 0.00 0.00 0.01 0.01 0.01 0.01 0.01
0.00 0.00 0.00 0.00 0.00 0.00 0.00 0.00 0.00 0.00 0.00 0.00 0.00 0.00 0.00 0.00 0.00 0.00 0.00 0.00 0.00 0.00 0.00 -0.00 0.00 0.00 0.00 0.00 0.00 0.00 0.01 0.01 0.01 0.01 0.01 0.00 0.01 0.01 0.01 0.01 0.01 0.01
0.00 0.00 0.00 0.00 -0.00 0.00 -0.00 0.00 -0.00 0.00 -0.00 0.00 0.00 0.00 0.00 0.00 -0.00 0.00 0.00 0.00 0.00 0.00 0.00 0.00 0.00 0.00 0.00 0.01 0.01 0.01 0.02 0.02 0.02 0.01 0.01 0.01 0.01 0.01 0.01 0.01 0.01 0.00
0.00 0.00 0.00 0.00 0.00 0.00 0.00 0.00 0.00 0.00 0.01 0.01 0.03 0.03 0.03 0.01 0.00 0.00 0.00 0.00 0.00 0.00 0.00 0.00 0.00 0.00 0.01 0.01 0.02 0.02 0.02 0.02 0.02 0.01 0.01 0.01 0.01 0.01 0.01 0.00 0.00 0.00
0.00 0.01 0.00 0.02 0.08 0.00 0.01 0.00 0.01 0.07 0.06 0.06 0.04 0.03 0.02 0.01 0.01 0.01 0.00 0.00 0.00 0.01 0.01 0.01 0.01 0.01 0.01 0.02 0.02 0.02 0.02 0.02 0.02 0.02 0.02 0.02 0.01 0.01 0.00 0.00 0.00 0.00
0.02 0.02 0.03 0.00 0.01 0.00 0.04 0.04 0.14 0.07 0.11 0.03 0.02 0.02 0.02 0.02 0.02 0.02 0.02 0.02 0.02 0.02 0.02 0.02 0.02 0.02 0.02 0.03 0.03 0.03 0.04 0.04 0.04 0.04 0.03 0.02 0.01 0.01 0.00 0.00 0.00 0.00
0.00 0.00 0.00 0.00 0.06 0.00 0.08 0.04 0.02 0.01 0.01 0.02 0.03 0.03 0.04 0.05 0.05 0.05 0.05 0.05 0.04 0.04 0.04 0.04 0.04 0.05 0.05 0.05 0.06 0.06 0.06 0.05 0.04 0.03 0.02 0.02 0.01 0.01 0.00 0.00 0.00 0.00
MSLP
1021.65 1022.03 1022.19 1022.41 1022.55 1022.77 1023.15 1023.59 1024.13 1024.43 1024.11 1024.15 1024.43 1025.03 1025.43 1025.89 1026.51 1026.81 1027.01 1027.29 1027.35 1027.43 1027.67 1027.95 1028.13 1028.17 1028.27 1028.47 1028.75 1029.01 1029.21 1029.41 1029.65 1029.81 1029.87 1030.03 1030.37 1030.55 1030.71 1031.11 1031.29 1031.33
1021.67 1021.95 1022.15 1022.37 1022.59 1022.87 1023.09 1023.29 1023.61 1023.71 1023.69 1023.69 1023.77 1024.37 1025.17 1025.79 1026.33 1026.63 1026.87 1027.19 1027.37 1027.59 1027.87 1028.05 1028.05 1028.01 1028.19 1028.47 1028.79 1028.91 1029.27 1029.53 1029.77 1030.19 1030.11 1030.35 1030.75 1030.91 1031.21 1031.59 1031.85 1032.21
1021.63 1021.91 1022.13 1022.25 1022.39 1022.67 1022.87 1023.07 1023.29 1023.43 1023.59 1023.61 1023.65 1024.19 1024.95 1025.55 1026.05 1026.53 1026.85 1027.07 1027.27 1027.65 1027.93 1028.01 1028.03 1028.17 1028.33 1028.59 1028.83 1028.95 1029.21 1029.53 1029.85 1030.37 1030.41 1030.75 1031.11 1031.29 1031.81 1032.11 1032.33 1032.35
1021.45 1021.65 1021.87 1022.13 1022.31 1022.51 1022.77 1023.03 1023.27 1023.53 1023.79 1024.11 1024.09 1024.25 1024.69 1025.39 1025.93 1026.35 1026.79 1027.13 1027.25 1027.57 1027.89 1028.03 1028.09 1028.27 1028.47 1028.67 1028.83 1029.17 1029.55 1029.91 1030.31 1030.55 1030.85 1031.33 1031.61 1031.79 1032.07 1032.31 1032.55 1032.75
1021.25 1021.61 1021.91 1022.09 1022.25 1022.47 1022.73 1022.93 1023.17 1023.37 1023.59 1023.87 1024.21 1024.57 1024.87 1025.35 1025.89 1026.31 1026.71 1027.09 1027.29 1027.59 1027.89 1028.07 1028.27 1028.39 1028.59 1028.83 1029.03 1029.39 1029.85 1030.25 1030.69 1030.77 1030.93 1031.39 1031.83 1031.95 1032.25 1032.49 1032.59 1032.75
1021.03 1021.33 1021.63 1021.89 1022.11 1022.31 1022.59 1022.81 1023.13 1023.45 1023.75 1024.15 1024.37 1024.71 1024.93 1025.25 1025.69 1026.15 1026.63 1026.95 1027.27 1027.57 1027.87 1028.13 1028.31 1028.59 1028.77 1029.01 1029.29 1029.59 1029.97 1030.31 1030.75 1030.81 1030.95 1031.21 1031.79 1032.13 1032.43 1032.65 1032.73 1032.81
1020.69 1021.07 1021.41 1021.75 1022.03 1022.23 1022.47 1022.75 1023.07 1023.47 1023.83 1023.97 1024.47 1024.83 1025.19 1025.45 1025.83 1026.23 1026.65 1026.91 1027.19 1027.51 1027.77 1028.03 1028.29 1028.61 1028.93 1029.09 1029.31 1029.77 1030.17 1030.41 1030.77 1030.87 1030.95 1031.41 1031.73 1032.19 1032.63 1032.89 1032.97 1032.97
1020.37 1020.73 1021.07 1021.47 1021.77 1022.07 1022.33 1022.71 1023.11 1023.39 1023.73 1024.15 1024.37 1024.75 1025.15 1025.45 1025.75 1026.21 1026.59 1026.87 1027.09 1027.41 1027.77 1028.07 1028.33 1028.59 1028.93 1029.05 1029.29 1029.79 1030.27 1030.59 1030.75 1030.89 1031.05 1031.41 1031.75 1032.13 1032.69 1033.01 1033.17 1033.11
1020.27 1020.69 1021.03 1021.33 1021.63 1021.95 1022.17 1022.49 1022.89 1023.27 1023.61 1023.95 1024.11 1024.57 1025.11 1025.39 1025.71 1026.09 1026.41 1026.71 1026.95 1027.27 1027.65 1027.99 1028.29 1028.61 1028.89 1029.03 1029.35 1029.67 1030.07 1030.55 1030.75 1030.81 1030.91 1031.21 1031.63 1032.09 1032.57 1033.01 1033.19 1033.15
1020.15 1020.61 1021.01 1021.27 1021.57 1021.89 1022.15 1022.45 1022.87 1023.17 1023.49 1023.81 1024.07 1024.45 1024.83 1025.35 1025.79 1026.09 1026.33 1026.53 1026.77 1027.19 1027.51 1027.87 1028.33 1028.65 1028.91 1029.11 1029.41 1029.73 1030.01 1030.33 1030.67 1030.87 1030.97 1031.15 1031.45 1031.95 1032.47 1032.79 1032.79 1032.97
1020.01 1020.41 1020.77 1021.17 1021.47 1021.85 1022.11 1022.43 1022.83 1023.13 1023.47 1023.73 1024.13 1024.47 1024.83 1025.25 1025.69 1026.03 1026.27 1026.45 1026.63 1026.99 1027.45 1027.91 1028.29 1028.61 1028.87 1029.21 1029.51 1029.77 1029.99 1030.31 1030.63 1030.85 1031.01 1031.23 1031.55 1031.95 1032.31 1032.53 1032.71 1032.59
1019.81 1020.23 1020.51 1020.85 1021.17 1021.61 1021.97 1022.27 1022.65 1023.05 1023.43 1023.71 1023.91 1024.19 1024.73 1025.11 1025.45 1025.91 1026.11 1026.37 1026.67 1027.05 1027.43 1027.89 1028.33 1028.59 1028.79 1029.05 1029.43 1029.83 1030.17 1030.49 1030.75 1030.91 1031.09 1031.35 1031.69 1032.07 1032.33 1032.51 1032.55 1032.63
1019.55 1019.89 1020.23 1020.59 1020.89 1021.21 1021.71 1022.23 1022.61 1022.89 1023.21 1023.61 1023.95 1024.17 1024.57 1025.01 1025.49 1025.85 1026.15 1026.31 1026.61 1026.99 1027.35 1027.73 1028.17 1028.53 1028.81 1029.11 1029.47 1029.83 1030.17 1030.49 1030.79 1030.99 1031.23 1031.55 1031.85 1032.09 1032.27 1032.43 1032.49 1032.55
1019.27 1019.65 1019.99 1020.35 1020.69 1021.07 1021.53 1022.01 1022.51 1022.97 1023.29 1023.63 1023.95 1024.15 1024.43 1024.77 1025.15 1025.51 1025.95 1026.23 1026.51 1026.85 1027.25 1027.67 1028.09 1028.47 1028.79 1029.11 1029.47 1029.79 1030.13 1030.47 1030.71 1030.93 1031.23 1031.57 1031.85 1032.05 1032.21 1032.35 1032.39 1032.43
1019.15 1019.55 1019.91 1020.27 1020.61 1020.93 1021.35 1021.87 1022.35 1022.75 1023.13 1023.53 1023.87 1024.09 1024.37 1024.61 1024.95 1025.29 1025.69 1026.07 1026.43 1026.71 1027.15 1027.55 1027.89 1028.23 1028.49 1028.83 1029.25 1029.69 1030.05 1030.35 1030.65 1030.89 1031.13 1031.39 1031.71 1032.01 1032.25 1032.39 1032.39 1032.39
1018.91 1019.35 1019.71 1020.09 1020.45 1020.71 1021.13 1021.61 1022.05 1022.57 1022.95 1023.29 1023.59 1023.85 1024.13 1024.49 1024.83 1025.19 1025.53 1025.79 1026.17 1026.63 1027.01 1027.39 1027.75 1028.07 1028.37 1028.67 1029.01 1029.41 1029.89 1030.31 1030.65 1030.89 1031.07 1031.33 1031.63 1031.95 1032.21 1032.35 1032.33 1032.33
1018.63 1019.11 1019.49 1019.83 1020.05 1020.43 1020.87 1021.33 1021.85 1022.37 1022.77 1023.09 1023.43 1023.67 1023.93 1024.29 1024.63 1024.95 1025.23 1025.53 1025.87 1026.23 1026.67 1027.07 1027.43 1027.79 1028.11 1028.41 1028.77 1029.23 1029.67 1030.07 1030.39 1030.71 1031.03 1031.27 1031.51 1031.63 1031.63 1031.89 1032.09 1032.23
1018.19 1018.71 1019.15 1019.49 1019.85 1020.23 1020.69 1021.11 1021.57 1022.03 1022.39 1022.69 1023.05 1023.39 1023.65 1023.99 1024.25 1024.43 1024.71 1025.07 1025.45 1025.85 1026.21 1026.61 1027.05 1027.41 1027.67 1027.95 1028.33 1028.79 1029.31 1029.73 1030.13 1030.43 1030.83 1031.05 1031.19 1031.33 1031.37 1031.47 1031.57 1031.89
1017.91 1018.37 1018.81 1019.25 1019.61 1019.97 1020.43 1020.95 1021.39 1021.83 1022.19 1022.53 1022.79 1023.01 1023.41 1023.73 1023.91 1024.29 1024.57 1024.89 1025.19 1025.57 1025.97 1026.39 1026.73 1026.97 1027.17 1027.49 1027.91 1028.37 1028.89 1029.47 1029.89 1030.23 1030.61 1030.81 1030.91 1031.01 1031.05 1031.11 1031.23 1031.43
1017.83 1018.27 1018.67 1019.09 1019.55 1019.99 1020.37 1020.77 1021.23 1021.59 1021.99 1022.41 1022.85 1023.31 1023.65 1023.99 1024.21 1024.41 1024.73 1025.01 1025.25 1025.53 1025.91 1026.33 1026.67 1026.87 1027.03 1027.31 1027.69 1028.11 1028.63 1029.25 1029.75 1030.11 1030.39 1030.53 1030.61 1030.67 1030.73 1030.83 1030.91 1030.93
1017.87 1018.23 1018.61 1019.11 1019.61 1020.09 1020.47 1020.83 1021.19 1021.63 1022.05 1022.43 1022.83 1023.21 1023.57 1023.89 1024.23 1024.59 1024.89 1025.23 1025.55 1025.83 1026.13 1026.47 1026.75 1026.85 1026.99 1027.27 1027.63 1028.09 1028.53 1028.97 1029.59 1030.03 1030.25 1030.31 1030.33 1030.35 1030.37 1030.47 1030.61 1030.65
1017.71 1018.17 1018.63 1019.11 1019.57 1020.03 1020.47 1020.87 1021.23 1021.51 1021.87 1022.35 1022.81 1023.31 1023.71 1024.05 1024.39 1024.69 1024.99 1025.29 1025.65 1025.97 1026.31 1026.69 1026.99 1026.99 1027.05 1027.17 1027.43 1027.89 1028.29 1028.67 1029.29 1029.75 1029.87 1029.89 1030.01 1030.01 1030.01 1030.15 1030.41 1030.41
1017.61 1018.03 1018.51 1018.95 1019.37 1019.79 1020.17 1020.55 1020.93 1021.33 1021.79 1022.21 1022.69 1023.17 1023.57 1023.95 1024.33 1024.71 1025.17 1025.53 1025.79 1026.03 1026.23 1026.63 1026.95 1026.97 1027.01 1027.09 1027.37 1027.71 1028.05 1028.45 1028.81 1029.21 1029.47 1029.67 1029.63 1029.61 1029.69 1029.89 1030.03 1030.01
1017.61 1017.89 1018.31 1018.77 1019.13 1019.37 1019.79 1020.37 1020.91 1021.41 1021.87 1022.11 1022.35 1022.89 1023.33 1023.77 1024.17 1024.61 1024.97 1025.33 1025.77 1026.13 1026.37 1026.59 1026.99 1027.09 1027.11 1027.27 1027.45 1027.53 1027.69 1028.07 1028.45 1028.87 1029.13 1029.29 1029.33 1029.33 1029.41 1029.51 1029.47 1029.65
1017.65 1018.01 1018.37 1018.85 1019.27 1019.71 1020.21 1020.73 1021.13 1021.45 1021.87 1022.25 1022.63 1023.09 1023.61 1024.11 1024.45 1024.77 1025.15 1025.49 1025.77 1026.09 1026.47 1026.69 1026.95 1027.13 1027.15 1027.29 1027.41 1027.53 1027.77 1028.09 1028.39 1028.63 1028.77 1028.85 1028.95 1028.77 1028.73 1028.99 1029.11 1029.25
1017.67 1018.01 1018.43 1018.85 1019.29 1019.71 1020.01 1020.41 1020.97 1021.55 1021.97 1022.35 1022.77 1023.13 1023.67 1024.09 1024.43 1024.73 1025.05 1025.47 1025.79 1026.03 1026.27 1026.41 1026.55 1026.83 1027.11 1027.31 1027.53 1027.63 1027.71 1027.93 1028.21 1028.45 1028.39 1028.35 1028.35 1028.25 1028.21 1028.23 1028.47 1028.65
Thickness
5612 5609 5607 5604 5603 5600 5596 5593 5588 5586 5585 5585 5582 5577 5573 5569 5565 5563 5560 5558 5556 5555 5553 5550 5548 5546 5545 5541 5538 5534 5531 5527 5525 5521 5518 5515 5511 5507 5504 5499 5495 5491
5607 5605 5603 5600 5598 5595 5592 5589 5586 5584 5583 5583 5581 5576 5570 5566 5561 5558 5556 5553 5551 5549 5546 5544 5542 5541 5539 5535 5532 5528 5525 5521 5517 5514 5510 5507 5503 5499 5495 5490 5485 5481
5603 5600 5598 5596 5594 5591 5588 5586 5583 5581 5579 5577 5577 5573 5567 5562 5558 5554 5551 5548 5546 5543 5540 5539 5537 5535 5532 5529 5526 5522 5519 5514 5510 5506 5502 5498 5494 5490 5485 5480 5476 5473
5599 5597 5595 5592 5589 5587 5584 5582 5578 5577 5574 5571 5570 5567 5563 5558 5554 5550 5546 5543 5541 5538 5535 5533 5531 5529 5526 5522 5519 5515 5510 5506 5502 5498 5494 5488 5485 5481 5476 5472 5467 5464
5596 5593 5591 5588 5585 5582 5580 5577 5574 5571 5568 5566 5563 5561 5558 5554 5549 5546 5541 5538 5535 5532 5529 5527 5524 5522 5519 5515 5512 5507 5502 5498 5493 5490 5486 5481 5477 5473 5468 5463 5458 5455
5594 5590 5587 5584 5581 5578 5575 5573 5569 5566 5563 5560 5557 5554 5552 5548 5544 5540 5536 5533 5530 5526 5523 5520 5518 5514 5511 5508 5504 5499 5495 5490 5486 5482 5479 5474 5469 5464 5459 5454 5450 5447
5592 5588 5585 5581 5577 5574 5571 5567 5564 5560 5557 5554 5551 5548 5545 5542 5538 5534 5530 5527 5524 5520 5517 5514 5512 5508 5504 5501 5497 5492 5487 5483 5479 5475 5471 5467 5462 5455 5449 5445 5441 5438
5589 5586 5582 5578 5574 5570 5567 5563 5559 5555 5552 5549 5545 5543 5539 5536 5533 5528 5524 5522 5518 5515 5512 5508 5505 5502 5498 5495 5490 5485 5480 5475 5471 5468 5464 5459 5454 5447 5441 5436 5432 5429
5585 5581 5577 5573 5570 5566 5563 5559 5556 5551 5548 5545 5542 5539 5534 5531 5527 5524 5520 5517 5514 5510 5506 5503 5499 5495 5492 5488 5484 5478 5473 5468 5464 5460 5457 5452 5447 5441 5434 5429 5425 5422
5581 5576 5572 5569 5565 5561 5557 5554 5550 5547 5544 5540 5537 5534 5530 5526 5522 5518 5515 5513 5509 5505 5501 5497 5493 5488 5484 5480 5476 5471 5466 5461 5457 5453 5450 5446 5440 5434 5428 5423 5419 5415
5576 5572 5568 5564 5560 5555 5552 5549 5544 5541 5538 5535 5532 5529 5525 5521 5517 5513 5510 5507 5504 5500 5495 5490 5485 5481 5477 5472 5467 5463 5458 5454 5450 5446 5442 5438 5433 5427 5422 5417 5413 5408
5571 5567 5564 5560 5556 5552 5547 5544 5540 5536 5533 5530 5527 5524 5520 5515 5512 5508 5504 5502 5497 5493 5488 5482 5478 5473 5469 5465 5460 5455 5451 5446 5442 5438 5434 5430 5425 5420 5415 5410 5406 5402
5567 5563 5559 5556 5552 5548 5544 5539 5535 5531 5528 5524 5521 5518 5515 5511 5507 5502 5498 5495 5490 5486 5481 5476 5471 5466 5462 5458 5453 5448 5443 5438 5434 5430 5427 5423 5418 5413 5408 5403 5398 5395
5562 5558 5554 5551 5547 5544 5539 5534 5530 5526 5522 5519 5515 5513 5510 5506 5502 5498 5493 5488 5484 5479 5475 5470 5464 5459 5455 5450 5445 5441 5436 5431 5427 5424 5420 5415 5410 5405 5400 5395 5391 5388
5557 5553 5550 5546 5542 5539 5535 5530 5525 5521 5517 5513 5510 5507 5504 5501 5497 5493 5488 5483 5479 5474 5469 5464 5458 5454 5449 5445 5440 5435 5429 5425 5421 5417 5413 5408 5402 5398 5392 5388 5384 5381
5552 5548 5544 5541 5537 5535 5530 5525 5521 5515 5511 5508 5505 5502 5499 5495 5491 5487 5483 5478 5474 5469 5463 5458 5453 5448 5444 5439 5434 5428 5423 5418 5414 5409 5405 5399 5394 5389 5384 5380 5376 5373
5548 5544 5540 5537 5533 5530 5525 5521 5515 5510 5506 5503 5500 5497 5493 5490 5485 5481 5478 5474 5469 5464 5459 5454 5448 5442 5438 5433 5427 5423 5417 5412 5408 5402 5397 5392 5387 5382 5378 5374 5369 5365
5544 5540 5536 5532 5529 5524 5519 5515 5509 5505 5502 5498 5495 5492 5488 5485 5481 5478 5475 5470 5466 5461 5455 5449 5443 5437 5432 5427 5422 5417 5412 5407 5402 5396 5390 5384 5380 5376 5372 5367 5363 5358
5539 5535 5531 5526 5523 5518 5513 5509 5504 5501 5498 5494 5491 5487 5483 5479 5476 5473 5469 5464 5460 5455 5449 5443 5437 5431 5427 5423 5417 5412 5406 5401 5395 5389 5383 5378 5374 5371 5366 5362 5357 5353
5533 5529 5525 5520 5516 5511 5507 5503 5499 5495 5491 5487 5483 5479 5475 5472 5468 5464 5461 5456 5452 5447 5441 5435 5430 5424 5420 5415 5410 5405 5399 5394 5388 5382 5376 5373 5369 5365 5361 5356 5352 5347
5526 5522 5518 5513 5508 5504 5500 5496 5492 5488 5484 5479 5475 5471 5467 5463 5459 5455 5451 5447 5442 5438 5432 5426 5420 5415 5411 5407 5403 5397 5393 5388 5381 5374 5370 5367 5363 5360 5356 5350 5344 5339
5521 5516 5511 5507 5503 5498 5493 5489 5485 5481 5477 5473 5468 5464 5460 5456 5451 5447 5442 5437 5433 5428 5422 5416 5410 5405 5402 5400 5396 5391 5386 5381 5375 5368 5364 5361 5357 5354 5349 5343 5337 5333
5515 5511 5507 5502 5497 5493 5489 5485 5480 5476 5471 5467 5463 5457 5453 5448 5444 5439 5434 5429 5423 5419 5414 5408 5402 5398 5395 5392 5388 5384 5379 5374 5368 5363 5358 5354 5351 5346 5341 5336 5332 5328
5509 5505 5501 5496 5491 5488 5483 5478 5474 5470 5466 5462 5457 5452 5447 5442 5437 5432 5426 5421 5416 5410 5406 5400 5394 5390 5386 5382 5378 5375 5370 5365 5360 5355 5350 5346 5343 5340 5336 5332 5328 5323
5501 5497 5493 5489 5484 5480 5475 5470 5466 5463 5458 5454 5449 5444 5439 5434 5429 5425 5419 5414 5408 5402 5397 5392 5386 5382 5377 5372 5368 5364 5359 5355 5350 5346 5344 5340 5336 5335 5332 5328 5323 5319
5494 5489 5485 5480 5476 5472 5468 5464 5459 5454 5449 5445 5440 5435 5430 5426 5422 5417 5411 5406 5401 5395 5390 5385 5380 5374 5368 5362 5358 5354 5350 5346 5342 5339 5338 5334 5332 5331 5329 5325 5320 5314